Showing default

CHUANG XIN 20C (CX-20C), 58427

Orbit data source: Space-Track

CHUANG XIN 20C (CX-20C), 58427 is a payload satellite owned by Zhongguo Xingwang (CN) in LEO that was launched on Thu, 23 Nov 2023 UTC via a CHANG ZHENG 2D/YZ-3 launch vehicle from the Xichang Space Center, China (XSC). Payload-class satellites include a variety of spacecraft equipped with specific instruments for various scientific and technological missions. These include communications satellites like Starlink; space stations such as the ISS; scientific satellites like the Hubble; Earth observation satellites from companies like Planet Labs, Umbra, and HawkEye 360; GPS; miniature CubeSats for education and research; and military/defense satellites.

Loading next visibility...
Identifier
58427, 2023-181C
Orbit
LEO
Country
Flag of CNCN / PRC
Related business
Manufacturer
SECM
Mission
Operational Civil Communications
Bus & Motor
Unknown
Mass
~300 kg wet, ~300 kg dry
Launch date (UTC)
2023-11-23 (3 years ago)
Launch vehicle
CHANG ZHENG 2D/YZ-3
Launch site
Xichang Space Center, China (XSC)
Object type
Payload
Rocket body
Debris
Shape & HBR
Box + 2 Pan, 1.3 m
Radar Cross Section
2.320 m², Large (>1 m²)

Expand to show TLE details & history
Last TLE update: 22 hours ago

TLE from 22 hours ago
0 CHUANG XIN 20C (CX-20C)
1 58427U 23181C   26172.53497160 -.00000088  00000-0  71018-4 0  9992
2 58427  49.9600 310.8133 0011261 270.0175  89.9411 13.41485060126337
Epoch: 2026-06-21T12:50Z
TLE epoch observation values (Epoch: 2026-06-21T12:50:21.546Z)
Latitude
-0.00004°
Longitude
-151.51036°
Altitude
1,104.258 km
Speed
7.301 km/s
True Right ascension
20h 43m 15s
True Declination
0° 00' 00"
Sunlit
Object was in full shadow at epoch
Visualization orbit readout
Latitude
Unknown
Longitude
Unknown
Altitude
Unknown
Speed
Unknown
Apparent Right ascension
Unknown
Apparent Declination
Unknown
Sunlit
N/A
Visualization observer readout
Local Sidereal Time
21:30:49
Azimuth
Unknown
Elevation
Unknown
Doppler factor
Unknown
Orbital elements
Apogee altitude
1,112.894 km
Perigee altitude
1,096.042 km
Semi-major axis
7,482.605 km
Eccentricity
0.00113
Inclination
49.96°
RAAN
310.8133°
Arg. of periapsis
270.0175°
True anomaly
90.07014°
Mean anomaly
89.9411°
Eccentric anomaly
90.00562°
Mean motion
3.35323 °/min
Orbital period
107.36 mins
BSTAR
0.000071018
Loading maneuver chart data...
Computing Atmospheric mass density...
Loading historical data...
Loading historical data...
Loading historical data...
Loading historical data...
Loading historical data...
Loading historical data...
Loading historical data...
Other satellites on launch #181 in the year 2023 (2023-11-23 UTC)

Documentation

Showing up to 5 results
|